EW2849 Weather Reports


Display with metric or nautical units.
time (UTC)temp
F
wind
direction
speed
MPH
gust
MPH
rain 1hr
in
rain 24hr
in
rain mn
in
humidity
%
barometer
mb
20260906193950 70 57 1.0 3.0 0.00 0.00 0.00 73 1019.0
20260906192748 71 90 1.0 1.0 0.00 0.00 0.00 71 1019.0
20260906191547 71 90 3.0 4.0 0.00 0.00 0.00 71 1019.0
20260906190346 71 96 4.0 5.0 0.00 0.00 0.00 70 1019.0
20260906185145 71 90 4.0 5.0 0.00 0.00 0.00 70 1019.0
20260906184004 71 90 5.0 6.0 0.00 0.00 0.00 72 1019.0
20260906182743 71 68 3.0 4.0 0.00 0.00 0.00 72 1019.0
20260906181541 71 79 3.0 3.0 0.00 0.00 0.00 71 1019.0
20260906180340 71 54 2.0 3.0 0.00 0.00 0.00 69 1019.0
20260906175201 72 73 3.0 3.0 0.00 0.00 0.00 68 1019.0
20260906173959 73 68 3.0 5.0 0.00 0.00 0.00 66 1019.0
20260906172758 74 90 3.0 4.0 0.00 0.00 0.00 63 1019.0
20260906171556 75 77 4.0 6.0 0.00 0.00 0.00 62 1019.0
20260906170335 75 108 3.0 4.0 0.00 0.00 0.00 62 1019.0
20260906165154 75 90 6.0 7.0 0.00 0.00 0.00 61 1019.0
20260906163933 75 90 4.0 4.0 0.00 0.00 0.00 61 1019.0
20260906162732 75 135 5.0 7.0 0.00 0.00 0.00 60 1019.0
20260906161530 75 90 4.0 7.0 0.00 0.00 0.00 60 1019.0
20260906160329 76 171 5.0 9.0 0.00 0.00 0.00 59 1019.0
20260906155128 76 121 6.0 8.0 0.00 0.00 0.00 60 1019.0
20260906153927 76 124 6.0 7.0 0.00 0.00 0.00 60 1019.0
20260906152726 76 101 5.0 7.0 0.00 0.00 0.00 59 1022.4
20260906151525 76 84 8.0 10.0 0.00 0.00 0.00 59 1022.4
20260906150324 77 68 10.0 11.0 0.00 0.00 0.00 58 1022.4
20260906145123 77 122 8.0 11.0 0.00 0.00 0.00 58 1022.4
20260906143942 77 97 6.0 9.0 0.00 0.00 0.00 58 1022.4
20260906142741 78 101 6.0 11.0 0.00 0.00 0.00 58 1022.4
20260906141519 78 191 5.0 12.0 0.00 0.00 0.00 58 1022.4
20260906140318 78 130 7.0 11.0 0.00 0.00 0.00 57 1022.4
20260906135117 79 207 4.0 5.0 0.00 0.00 0.00 57 1022.4
20260906133915 79 166 8.0 9.0 0.00 0.00 0.00 57 1022.4
20260906132814 79 107 6.0 9.0 0.00 0.00 0.00 56 1022.4
20260906131613 79 152 7.0 12.0 0.00 0.00 0.00 56 1022.4
20260906130411 79 113 6.0 11.0 0.00 0.00 0.00 56 1022.4
20260906125210 78 148 5.0 6.0 0.00 0.00 0.00 57 1022.4
20260906124029 78 185 9.0 10.0 0.00 0.00 0.00 59 1022.4
20260906122808 78 149 7.0 11.0 0.00 0.00 0.00 59 1022.4
20260906121607 77 158 9.0 11.0 0.00 0.00 0.00 59 1022.4
20260906120406 77 105 7.0 10.0 0.00 0.00 0.00 62 1022.4
20260906115224 76 150 6.0 9.0 0.00 0.00 0.00 62 1022.4
20260906114023 76 116 5.0 10.0 0.00 0.00 0.00 63 1022.4
20260906112802 76 83 8.0 11.0 0.00 0.00 0.00 62 1022.4
20260906111601 76 101 7.0 9.0 0.00 0.00 0.00 64 1022.4
20260906110359 76 118 7.0 10.0 0.00 0.00 0.00 65 1022.4
20260906105218 75 101 7.0 12.0 0.00 0.00 0.00 66 1022.4
20260906103957 74 103 12.0 13.0 0.00 0.00 0.00 66 1022.4
20260906102756 73 94 6.0 9.0 0.00 0.00 0.00 68 1022.4
20260906101555 73 86 6.0 9.0 0.00 0.00 0.00 69 1022.4
20260906100354 73 114 7.0 9.0 0.00 0.00 0.00 70 1024.9
20260906095213 72 90 7.0 9.0 0.00 0.00 0.00 71 1024.9
20260906093952 71 116 4.0 6.0 0.00 0.00 0.00 73 1025.8
20260906092811 70 90 6.0 9.0 0.00 0.00 0.00 74 1025.8
20260906091610 69 90 7.0 11.0 0.00 0.00 0.00 76 1025.8
20260906090349 68 76 5.0 7.0 0.00 0.00 0.00 78 1025.8
20260906085148 67 90 6.0 8.0 0.00 0.00 0.00 80 1025.8
20260906083946 66 78 4.0 6.0 0.00 0.00 0.00 82 1025.8
20260906082745 65 68 4.0 6.0 0.00 0.00 0.00 85 1025.8
20260906081544 64 99 5.0 7.0 0.00 0.00 0.00 87 1025.8
20260906080343 63 73 7.0 7.0 0.00 0.00 0.00 89 1025.8
20260906075143 62 90 7.0 8.0 0.00 0.00 0.00 91 1025.8
20260906073941 60 90 6.0 6.0 0.00 0.00 0.00 94 1025.8
20260906072740 59 108 6.0 8.0 0.00 0.00 0.00 96 1025.8
20260906071539 58 77 5.0 7.0 0.00 0.00 0.00 98 1025.8
20260906070339 57 90 3.0 5.0 0.00 0.00 0.00 99 1025.8
20260906065136 56 93 3.0 5.0 0.00 0.00 0.00 100 1025.8
20260906064016 55 68 3.0 4.0 0.00 0.00 0.00 100 1025.8
20260906062734 54 90 3.0 4.0 0.00 0.00 0.00 100 1025.8
20260906061533 54 96 2.0 4.0 0.00 0.00 0.00 100 1025.8
20260906060333 53 100 2.0 3.0 0.00 0.00 0.00 100 1025.8
20260906055131 53 81 3.0 5.0 0.00 0.00 0.00 100 1025.8
20260906053930 52 99 1.0 3.0 0.00 0.00 0.00 100 1025.8
20260906052748 52 82 1.0 3.0 0.00 0.00 0.00 100 1025.8
20260906051527 52 158 1.0 2.0 0.00 0.00 0.00 100 1025.8
20260906050327 52 116 1.0 1.0 0.00 0.00 0.00 100 1025.8
20260906045125 52 113 0.0 1.0 0.00 0.00 0.00 100 1025.8
20260906043944 52 113 0.0 1.0 0.00 0.00 0.00 100 1025.8
20260906042723 53 124 1.0 1.0 0.00 0.00 0.00 100 1025.8
20260906041521 53 80 1.0 2.0 0.00 0.00 0.00 99 1025.8
20260906040321 53 113 0.0 1.0 0.00 0.00 0.00 99 1025.8
20260906035139 53 102 2.0 3.0 0.00 0.00 0.00 99 1025.8
20260906033919 52 104 2.0 3.0 0.00 0.00 0.00 99 1025.8
20260906032717 52 28 1.0 1.0 0.00 0.00 0.00 99 1025.8
20260906031536 52 42 0.0 1.0 0.00 0.00 0.00 99 1025.8
20260906030316 53 0.0 0.0 0.00 0.00 0.00 99 1025.8
20260906025215 53 69 1.0 1.0 0.00 0.00 0.00 99 1025.8
20260906024013 53 158 1.0 2.0 0.00 0.00 0.00 98 1025.8
20260906022812 53 72 2.0 2.0 0.00 0.00 0.00 98 1025.8
20260906021610 53 113 1.0 1.0 0.00 0.00 0.00 98 1025.8
20260906020409 53 68 1.0 2.0 0.00 0.00 0.00 98 1025.8
20260906015208 53 62 1.0 2.0 0.00 0.00 0.00 98 1025.8
20260906014007 53 90 0.0 1.0 0.00 0.00 0.00 98 1025.8
20260906012806 53 0.0 0.0 0.00 0.00 0.00 98 1025.8
20260906011625 53 0.0 0.0 0.00 0.00 0.00 97 1025.8
20260906010404 54 113 0.0 1.0 0.00 0.00 0.00 97 1025.8
20260906005202 54 0.0 0.0 0.00 0.00 0.00 97 1025.8
20260906004001 54 45 1.0 1.0 0.00 0.00 0.00 97 1025.8
20260906002800 54 45 3.0 4.0 0.00 0.00 0.00 96 1024.9
20260906001559 54 147 0.0 1.0 0.00 0.00 0.00 96 1025.8
20260906000358 54 0.0 1.0 0.00 0.00 0.00 96 1025.8
20260905235157 54 180 0.0 1.0 0.00 0.00 0.00 96 1025.8
20260905233956 54 180 0.0 1.0 0.00 0.00 0.00 95 1025.8
20260905232755 54 0.0 0.0 0.00 0.00 0.00 95 1025.8
20260905231554 55 141 0.0 1.0 0.00 0.00 0.00 95 1025.8
20260905230353 55 180 0.0 1.0 0.00 0.00 0.00 94 1025.8
20260905225152 55 0.0 0.0 0.00 0.00 0.00 94 1025.8
20260905223951 55 61 0.0 1.0 0.00 0.00 0.00 93 1025.8
20260905222830 55 106 1.0 1.0 0.00 0.00 0.00 93 1025.8
20260905221549 55 0.0 0.0 0.00 0.00 0.00 92 1025.8
20260905220408 56 0.0 1.0 0.00 0.00 0.00 91 1025.8
20260905215802 56 113 0.0 1.0 0.00 0.00 0.00 91 1025.8
20260905214520 56 0.0 1.0 0.00 0.00 0.00 90 1025.8
20260905213319 57 0.0 0.0 0.00 0.00 0.00 89 1025.8
20260905212118 57 68 0.0 1.0 0.00 0.00 0.00 89 1025.8
20260905210916 57 0.0 0.0 0.00 0.00 0.00 88 1025.8
20260905205815 57 0.0 0.0 0.00 0.00 0.00 87 1025.8
20260905204614 58 0.0 1.0 0.00 0.00 0.00 86 1025.8
20260905203413 58 0.0 0.0 0.00 0.00 0.00 85 1025.8
20260905202212 59 173 1.0 2.0 0.00 0.00 0.00 83 1025.8
20260905201031 59 68 0.0 1.0 0.00 0.00 0.00 82 1025.8
20260905195809 60 0.0 0.0 0.00 0.00 0.00 82 1025.8